• In Österreich
  • Länderverzeichnis
  • Für 7 Tage
  • Wassertemperatur
  • Satellitenkarten
  • Wetterkarte
  • News
  • Widgets
  • user-avatar
    Anmelden

    Stündliche Wetter Beauvais

    Heute, 22 Juli, Sonntag

    Zeit Temperatur Niederschläge Wind Luftdruck Luftfeuchtigkeit
    00:00 +16°C° 0 mm 1 m/S 753 mmHg 85%
    01:00 +16°C° 0 mm 1 m/S 753 mmHg 85%
    02:00 +16°C° 0 mm 1 m/S 753 mmHg 86%
    03:00 +15°C° 0 mm 1 m/S 753 mmHg 87%
    04:00 +16°C° 0 mm 1 m/S 753 mmHg 85%
    05:00 +18°C° 0 mm 1 m/S 754 mmHg 83%
    06:00 +19°C° 0 mm 1 m/S 754 mmHg 81%
    07:00 +20°C° 0 mm 1 m/S 754 mmHg 75%
    08:00 +22°C° 0 mm 1 m/S 754 mmHg 69%
    09:00 +24°C° 0 mm 1 m/S 754 mmHg 63%
    10:00 +25°C° 0 mm 2 m/S 754 mmHg 60%
    11:00 +25°C° 0 mm 2 m/S 754 mmHg 58%
    12:00 +26°C° 0 mm 2 m/S 754 mmHg 55%
    13:00 +27°C° 0,1 mm 2 m/S 754 mmHg 55%
    14:00 +27°C° 0,1 mm 3 m/S 754 mmHg 56%
    15:00 +27°C° 0,1 mm 3 m/S 754 mmHg 57%
    16:00 +26°C° 0,1 mm 3 m/S 754 mmHg 61%
    17:00 +25°C° 0,1 mm 3 m/S 754 mmHg 66%
    18:00 +25°C° 0,1 mm 3 m/S 754 mmHg 71%
    19:00 +22°C° 0 mm 3 m/S 754 mmHg 77%
    20:00 +20°C° 0 mm 2 m/S 754 mmHg 82%
    21:00 +18°C° 0 mm 2 m/S 755 mmHg 88%
    22:00 +18°C° 0 mm 2 m/S 755 mmHg 88%
    23:00 +17°C° 0 mm 2 m/S 755 mmHg 88%

    Morgen, 23 Juli, Montag

    Zeit Temperatur Niederschläge Wind Luftdruck Luftfeuchtigkeit
    00:00 +18°C° 0 mm 1 m/S 755 mmHg 88%
    01:00 +18°C° 0 mm 1 m/S 755 mmHg 88%
    02:00 +16°C° 0 mm 1 m/S 755 mmHg 89%
    03:00 +16°C° 0 mm 1 m/S 755 mmHg 89%
    04:00 +18°C° 0 mm 1 m/S 755 mmHg 86%
    05:00 +18°C° 0 mm 1 m/S 755 mmHg 83%
    06:00 +19°C° 0 mm 1 m/S 755 mmHg 81%
    07:00 +21°C° 0 mm 1 m/S 755 mmHg 74%
    08:00 +23°C° 0 mm 1 m/S 755 mmHg 67%
    09:00 +25°C° 0 mm 1 m/S 756 mmHg 61%
    10:00 +26°C° 0 mm 1 m/S 755 mmHg 57%
    11:00 +27°C° 0 mm 1 m/S 755 mmHg 53%
    12:00 +28°C° 0 mm 1 m/S 755 mmHg 49%
    13:00 +28°C° 0 mm 1 m/S 755 mmHg 49%
    14:00 +29°C° 0 mm 1 m/S 755 mmHg 48%
    15:00 +29°C° 0 mm 1 m/S 754 mmHg 47%
    16:00 +29°C° 0 mm 1 m/S 754 mmHg 51%
    17:00 +28°C° 0 mm 1 m/S 754 mmHg 55%
    18:00 +28°C° 0 mm 1 m/S 754 mmHg 59%
    19:00 +26°C° 0 mm 1 m/S 754 mmHg 64%
    20:00 +24°C° 0 mm 1 m/S 754 mmHg 69%
    21:00 +22°C° 0 mm 1 m/S 754 mmHg 74%
    22:00 +22°C° 0 mm 1 m/S 754 mmHg 76%
    23:00 +21°C° 0 mm 1 m/S 754 mmHg 78%

    übermorgen, 24 Juli, Dienstag

    Zeit Temperatur Niederschläge Wind Luftdruck Luftfeuchtigkeit
    00:00 +21°C° 0 mm 1 m/S 754 mmHg 81%
    01:00 +20°C° 0 mm 1 m/S 753 mmHg 82%
    02:00 +20°C° 0 mm 1 m/S 753 mmHg 83%
    03:00 +20°C° 0 mm 1 m/S 753 mmHg 83%
    04:00 +20°C° 0 mm 1 m/S 753 mmHg 81%
    05:00 +21°C° 0 mm 1 m/S 753 mmHg 79%
    06:00 +22°C° 0 mm 1 m/S 753 mmHg 77%
    07:00 +22°C° 0 mm 0 m/S 753 mmHg 71%
    08:00 +24°C° 0 mm 0 m/S 753 mmHg 65%
    09:00 +25°C° 0 mm 0 m/S 753 mmHg 60%
    10:00 +26°C° 0,1 mm 0 m/S 753 mmHg 56%
    11:00 +27°C° 0,1 mm 0 m/S 752 mmHg 52%
    12:00 +29°C° 0,1 mm 0 m/S 752 mmHg 49%
    13:00 +30°C° 0,2 mm 1 m/S 752 mmHg 50%
    14:00 +30°C° 0,2 mm 1 m/S 752 mmHg 51%
    15:00 +30°C° 0,2 mm 1 m/S 752 mmHg 52%
    16:00 +29°C° 0,4 mm 1 m/S 752 mmHg 58%
    17:00 +28°C° 0,4 mm 2 m/S 752 mmHg 63%
    18:00 +27°C° 0,4 mm 2 m/S 752 mmHg 69%
    19:00 +25°C° 0,1 mm 2 m/S 752 mmHg 73%
    20:00 +24°C° 0,1 mm 2 m/S 752 mmHg 77%
    21:00 +21°C° 0,1 mm 2 m/S 753 mmHg 82%
    22:00 +21°C° 0 mm 2 m/S 753 mmHg 83%
    23:00 +20°C° 0 mm 2 m/S 753 mmHg 85%

    25 Juli, Mittwoch

    Zeit Temperatur Niederschläge Wind Luftdruck Luftfeuchtigkeit
    00:00 +20°C° 0 mm 2 m/S 753 mmHg 86%
    01:00 +21°C° 0 mm 1 m/S 753 mmHg 87%
    02:00 +20°C° 0 mm 1 m/S 753 mmHg 88%
    03:00 +20°C° 0 mm 1 m/S 753 mmHg 89%
    04:00 +20°C° 0 mm 1 m/S 753 mmHg 87%
    05:00 +21°C° 0 mm 1 m/S 753 mmHg 86%
    06:00 +21°C° 0 mm 1 m/S 753 mmHg 85%
    07:00 +23°C° 0 mm 1 m/S 753 mmHg 78%
    08:00 +25°C° 0 mm 1 m/S 753 mmHg 72%
    09:00 +27°C° 0 mm 1 m/S 753 mmHg 66%
    10:00 +28°C° 0,6 mm 1 m/S 753 mmHg 62%
    11:00 +29°C° 0,6 mm 1 m/S 753 mmHg 58%
    12:00 +28°C° 0,6 mm 0 m/S 753 mmHg 54%
    13:00 +28°C° 0,4 mm 0 m/S 753 mmHg 53%
    14:00 +28°C° 0,4 mm 0 m/S 752 mmHg 52%
    15:00 +28°C° 0,4 mm 0 m/S 752 mmHg 52%
    16:00 +30°C° 0,4 mm 1 m/S 752 mmHg 56%
    17:00 +29°C° 0,4 mm 1 m/S 752 mmHg 60%
    18:00 +29°C° 0,4 mm 1 m/S 752 mmHg 64%
    19:00 +27°C° 0,1 mm 1 m/S 752 mmHg 67%
    20:00 +26°C° 0,1 mm 1 m/S 753 mmHg 70%
    21:00 +25°C° 0,1 mm 1 m/S 753 mmHg 73%
    22:00 +24°C° 0 mm 1 m/S 753 mmHg 75%
    23:00 +23°C° 0 mm 1 m/S 753 mmHg 77%

    26 Juli, Donnerstag

    Zeit Temperatur Niederschläge Wind Luftdruck Luftfeuchtigkeit
    00:00 +23°C° 0 mm 1 m/S 753 mmHg 79%
    01:00 +23°C° 0,1 mm 1 m/S 753 mmHg 80%
    02:00 +22°C° 0,1 mm 1 m/S 753 mmHg 81%
    03:00 +22°C° 0,1 mm 1 m/S 753 mmHg 82%
    04:00 +22°C° 0,2 mm 1 m/S 753 mmHg 81%
    05:00 +23°C° 0,2 mm 1 m/S 753 mmHg 80%
    06:00 +23°C° 0,2 mm 1 m/S 754 mmHg 79%
    07:00 +25°C° 0,5 mm 1 m/S 754 mmHg 75%
    08:00 +26°C° 0,5 mm 1 m/S 754 mmHg 70%
    09:00 +28°C° 0,5 mm 1 m/S 754 mmHg 65%
    10:00 +28°C° 1,2 mm 1 m/S 754 mmHg 62%
    11:00 +29°C° 1,2 mm 1 m/S 754 mmHg 60%
    12:00 +30°C° 1,2 mm 1 m/S 754 mmHg 57%
    13:00 +30°C° 0 mm 1 m/S 754 mmHg 57%
    14:00 +30°C° 0 mm 2 m/S 754 mmHg 58%
    15:00 +29°C° 0 mm 2 m/S 754 mmHg 59%
    16:00 +29°C° 0,1 mm 2 m/S 754 mmHg 62%
    17:00 +28°C° 0,1 mm 2 m/S 753 mmHg 65%
    18:00 +28°C° 0,1 mm 2 m/S 753 mmHg 68%
    19:00 +26°C° 0,3 mm 2 m/S 754 mmHg 72%
    20:00 +25°C° 0,3 mm 2 m/S 754 mmHg 76%
    21:00 +24°C° 0,3 mm 2 m/S 754 mmHg 79%
    22:00 +23°C° 0,4 mm 2 m/S 754 mmHg 81%
    23:00 +23°C° 0,4 mm 1 m/S 754 mmHg 83%

    27 Juli, Freitag

    Zeit Temperatur Niederschläge Wind Luftdruck Luftfeuchtigkeit
    00:00 +22°C° 0,4 mm 1 m/S 754 mmHg 84%
    01:00 +22°C° 0 mm 1 m/S 753 mmHg 85%
    02:00 +22°C° 0 mm 1 m/S 753 mmHg 86%
    03:00 +21°C° 0 mm 1 m/S 753 mmHg 86%
    04:00 +22°C° 0,2 mm 1 m/S 753 mmHg 86%
    05:00 +22°C° 0,2 mm 1 m/S 753 mmHg 85%
    06:00 +22°C° 0,2 mm 1 m/S 753 mmHg 84%
    07:00 +24°C° 0,1 mm 1 m/S 753 mmHg 79%
    08:00 +26°C° 0,1 mm 1 m/S 753 mmHg 73%
    09:00 +27°C° 0,1 mm 2 m/S 753 mmHg 68%
    10:00 +29°C° 0,7 mm 1 m/S 753 mmHg 63%
    11:00 +30°C° 0,7 mm 1 m/S 753 mmHg 58%
    12:00 +31°C° 0,7 mm 1 m/S 753 mmHg 53%
    13:00 +31°C° 0,1 mm 1 m/S 753 mmHg 54%
    14:00 +31°C° 0,1 mm 1 m/S 752 mmHg 55%
    15:00 +30°C° 0,1 mm 1 m/S 752 mmHg 56%
    16:00 +30°C° 0,4 mm 2 m/S 752 mmHg 60%
    17:00 +29°C° 0,4 mm 2 m/S 752 mmHg 65%
    18:00 +28°C° 0,4 mm 2 m/S 752 mmHg 69%
    19:00 +26°C° 0,8 mm 2 m/S 752 mmHg 75%
    20:00 +25°C° 0,8 mm 3 m/S 753 mmHg 80%
    21:00 +22°C° 0,8 mm 3 m/S 753 mmHg 86%
    22:00 +21°C° 0,8 mm 3 m/S 753 mmHg 87%
    23:00 +21°C° 0,8 mm 2 m/S 753 mmHg 89%
    Mehr zeigen